Time,TemperatureF,DewpointF,PressureIn,WindDirection,WindDirectionDegrees,WindSpeedMPH,WindSpeedGustMPH,Humidity,HourlyPrecipIn,Conditions,Clouds,dailyrainin,SoftwareType,DateUTC
2014-01-10 08:42:00,42.0,41.0,29.83,SSE,164,8.0,-999.0,98,-99.99,,,-99.99,,2014-01-10 14:42:00,
2014-01-10 08:52:00,42.0,41.0,29.83,SSE,151,7.0,-999.0,98,-99.99,,,-99.99,,2014-01-10 14:52:00,
2014-01-10 09:11:00,43.0,42.0,29.83,ESE,110,4.0,-999.0,98,-99.99,,,-99.99,,2014-01-10 15:11:00,
2014-01-10 09:22:00,43.0,42.0,29.81,SSE,152,5.0,-999.0,98,-99.99,,,-99.99,,2014-01-10 15:22:00,
2014-01-10 09:43:00,43.0,42.0,29.82,South,170,8.0,-999.0,97,-99.99,,,-99.99,,2014-01-10 15:43:00,
2014-01-10 09:53:00,43.0,42.0,29.80,ESE,122,8.0,-999.0,95,-99.99,,,-99.99,,2014-01-10 15:53:00,
2014-01-10 10:23:00,43.0,41.0,29.79,South,178,7.0,-999.0,94,-99.99,,,-99.99,,2014-01-10 16:23:00,
2014-01-10 10:52:00,44.0,43.0,29.78,SSE,165,9.0,-999.0,95,-99.99,,,-99.99,,2014-01-10 16:52:00,
2014-01-10 11:22:00,43.0,42.0,29.76,South,188,10.0,-999.0,96,-99.99,,,-99.99,,2014-01-10 17:22:00,
2014-01-10 11:43:00,44.0,43.0,29.75,SSE,160,12.0,-999.0,96,-99.99,,,-99.99,,2014-01-10 17:43:00,
2014-01-10 11:53:00,45.0,44.0,29.75,SSE,154,12.0,-999.0,96,-99.99,,,-99.99,,2014-01-10 17:53:00,
2014-01-10 12:02:00,45.0,44.0,29.75,SSE,154,12.0,-999.0,96,-99.99,,,-99.99,,2014-01-10 18:02:00,
2014-01-10 12:12:00,45.0,44.0,29.75,SSE,154,12.0,-999.0,96,-99.99,,,-99.99,,2014-01-10 18:12:00,
2014-01-10 12:22:00,45.0,44.0,29.75,SSE,154,12.0,-999.0,96,-99.99,,,-99.99,,2014-01-10 18:22:00,
2014-01-10 14:42:00,48.0,46.0,29.59,SSE,150,11.0,-999.0,94,-99.99,,,-99.99,,2014-01-10 20:42:00,
2014-01-10 14:52:00,48.0,46.0,29.60,South,177,9.0,-999.0,94,-99.99,,,-99.99,,2014-01-10 20:52:00,
2014-01-10 15:12:00,48.0,46.0,29.59,SSE,163,9.0,-999.0,94,-99.99,,,-99.99,,2014-01-10 21:12:00,
2014-01-10 15:21:00,48.0,46.0,29.59,SSE,153,9.0,-999.0,93,-99.99,,,-99.99,,2014-01-10 21:21:00,
2014-01-10 15:43:00,48.0,46.0,29.59,South,172,9.0,-999.0,93,-99.99,,,-99.99,,2014-01-10 21:43:00,
2014-01-10 15:53:00,48.0,46.0,29.59,SE,136,7.0,-999.0,94,-99.99,,,-99.99,,2014-01-10 21:53:00,
2014-01-10 16:22:00,49.0,47.0,29.59,SSE,147,7.0,-999.0,93,-99.99,,,-99.99,,2014-01-10 22:22:00,
2014-01-10 16:43:00,49.0,47.0,29.59,SSE,168,8.0,-999.0,92,-99.99,,,-99.99,,2014-01-10 22:43:00,
2014-01-10 16:53:00,49.0,47.0,29.58,SE,136,7.0,-999.0,92,-99.99,,,-99.99,,2014-01-10 22:53:00,
2014-01-10 17:22:00,49.0,47.0,29.57,South,178,8.0,-999.0,92,-99.99,,,-99.99,,2014-01-10 23:22:00,
2014-01-10 17:52:00,49.0,46.0,29.56,SSE,166,6.0,-999.0,91,-99.99,,,-99.99,,2014-01-10 23:52:00,
2014-01-10 18:12:00,49.0,47.0,29.56,SSE,160,6.0,-999.0,92,-99.99,,,-99.99,,2014-01-11 00:12:00,
2014-01-10 18:22:00,49.0,47.0,29.56,South,182,5.0,-999.0,92,-99.99,,,-99.99,,2014-01-11 00:22:00,
2014-01-10 18:52:00,49.0,47.0,29.58,SE,135,4.0,-999.0,93,-99.99,,,-99.99,,2014-01-11 00:52:00,
2014-01-10 19:02:00,49.0,47.0,29.58,SE,135,4.0,-999.0,93,-99.99,,,-99.99,,2014-01-11 01:02:00,
2014-01-10 19:12:00,49.0,47.0,29.58,SE,135,4.0,-999.0,93,-99.99,,,-99.99,,2014-01-11 01:12:00,
2014-01-10 19:22:00,49.0,47.0,29.58,SE,135,4.0,-999.0,93,-99.99,,,-99.99,,2014-01-11 01:22:00,
2014-01-10 23:12:00,39.0,36.0,29.63,WNW,294,1.0,-999.0,89,-99.99,,,-99.99,,2014-01-11 05:12:00,
2014-01-10 23:22:00,39.0,36.0,29.63,WNW,294,1.0,-999.0,89,-99.99,,,-99.99,,2014-01-11 05:22:00,
2014-01-10 23:33:00,39.0,36.0,29.63,WNW,294,1.0,-999.0,89,-99.99,,,-99.99,,2014-01-11 05:33:00,